Time,TemperatureF,DewpointF,PressureIn,WindDirection,WindDirectionDegrees,WindSpeedMPH,WindSpeedGustMPH,Humidity,HourlyPrecipIn,Conditions,Clouds,dailyrainin,SoftwareType,DateUTC
2013-05-13 11:53:00,81.1,67.0,30.09,West,276,4.3,4.3,63,0.00,,,0.00,TxWx,2013-05-13 15:53:00,
2013-05-13 11:54:00,81.2,67.0,30.09,NW,321,3.1,3.1,63,0.00,,,0.00,TxWx,2013-05-13 15:54:00,
2013-05-13 11:57:00,81.0,67.0,30.09,NW,321,6.2,6.2,63,0.00,,,0.00,TxWx,2013-05-13 15:57:00,
2013-05-13 11:59:00,80.9,67.0,30.09,WNW,298,8.7,8.7,62,0.00,,,0.00,TxWx,2013-05-13 15:59:00,
2013-05-13 12:00:00,81.0,67.0,30.09,WNW,298,7.4,8.0,63,0.00,,,0.00,TxWx,2013-05-13 16:00:00,
2013-05-13 12:02:00,81.0,67.0,30.09,WSW,253,6.8,8.0,63,0.00,,,0.00,TxWx,2013-05-13 16:02:00,
2013-05-13 12:03:00,81.2,67.0,30.09,West,276,6.8,6.8,64,0.00,,,0.00,TxWx,2013-05-13 16:03:00,
2013-05-13 12:06:00,81.3,67.0,30.09,West,276,8.0,8.0,62,0.00,,,0.00,TxWx,2013-05-13 16:06:00,
2013-05-13 12:07:00,81.4,67.0,30.09,West,276,8.7,8.7,63,0.00,,,0.00,TxWx,2013-05-13 16:07:00,
2013-05-13 12:08:00,81.6,68.0,30.09,NNW,343,7.4,8.0,62,0.00,,,0.00,TxWx,2013-05-13 16:08:00,
2013-05-13 12:09:00,81.5,68.0,30.09,NW,321,7.4,8.0,62,0.00,,,0.00,TxWx,2013-05-13 16:09:00,
2013-05-13 12:11:00,81.5,68.0,30.08,WNW,298,6.8,7.4,62,0.00,,,0.00,TxWx,2013-05-13 16:11:00,
2013-05-13 12:12:00,81.5,66.0,30.08,NW,321,5.6,6.8,61,0.00,,,0.00,TxWx,2013-05-13 16:12:00,
2013-05-13 12:13:00,81.5,68.0,30.08,West,276,8.0,8.7,62,0.00,,,0.00,TxWx,2013-05-13 16:13:00,
2013-05-13 12:15:00,81.4,67.0,30.09,West,276,8.0,8.7,62,0.00,,,0.00,TxWx,2013-05-13 16:15:00,
2013-05-13 12:17:00,81.3,66.0,30.09,West,276,10.5,10.5,62,0.00,,,0.00,TxWx,2013-05-13 16:17:00,
2013-05-13 12:18:00,81.3,67.0,30.09,West,276,6.2,6.2,62,0.00,,,0.00,TxWx,2013-05-13 16:18:00,
2013-05-13 12:19:00,81.2,66.0,30.08,West,276,5.0,5.6,62,0.00,,,0.00,TxWx,2013-05-13 16:19:00,
2013-05-13 12:22:00,81.7,68.0,30.08,West,276,5.0,5.0,63,0.00,,,0.00,TxWx,2013-05-13 16:22:00,
2013-05-13 12:23:00,81.7,68.0,30.08,West,276,9.9,9.9,63,0.00,,,0.00,TxWx,2013-05-13 16:23:00,
2013-05-13 12:24:00,81.7,67.0,30.09,West,276,7.4,7.4,62,0.00,,,0.00,TxWx,2013-05-13 16:24:00,
2013-05-13 12:25:00,81.7,68.0,30.08,WNW,298,6.2,6.2,63,0.00,,,0.00,TxWx,2013-05-13 16:25:00,
2013-05-13 12:27:00,81.6,67.0,30.09,WNW,298,3.7,4.3,61,0.00,,,0.00,TxWx,2013-05-13 16:27:00,
2013-05-13 12:29:00,81.9,68.0,30.08,West,276,8.7,8.7,63,0.00,,,0.00,TxWx,2013-05-13 16:29:00,
2013-05-13 12:30:00,81.8,68.0,30.09,WNW,298,3.7,3.7,63,0.00,,,0.00,TxWx,2013-05-13 16:30:00,
2013-05-13 12:31:00,81.8,67.0,30.08,WNW,298,4.3,5.0,61,0.00,,,0.00,TxWx,2013-05-13 16:31:00,
2013-05-13 12:33:00,82.3,69.0,30.08,NW,321,2.5,2.5,64,0.00,,,0.00,TxWx,2013-05-13 16:33:00,
2013-05-13 12:34:00,82.5,70.0,30.08,WSW,253,3.1,3.7,65,0.00,,,0.00,TxWx,2013-05-13 16:34:00,
2013-05-13 12:36:00,82.1,67.0,30.08,WNW,298,3.7,3.7,60,0.00,,,0.00,TxWx,2013-05-13 16:36:00,
2013-05-13 12:38:00,82.1,66.0,30.08,WNW,298,11.1,11.1,60,0.00,,,0.00,TxWx,2013-05-13 16:38:00,
2013-05-13 12:39:00,82.2,67.0,30.08,WNW,298,7.4,8.0,61,0.00,,,0.00,TxWx,2013-05-13 16:39:00,
2013-05-13 12:40:00,82.0,67.0,30.08,West,276,8.7,10.5,60,0.00,,,0.00,TxWx,2013-05-13 16:40:00,
2013-05-13 12:41:00,82.2,68.0,30.08,West,276,11.1,11.8,63,0.00,,,0.00,TxWx,2013-05-13 16:41:00,
2013-05-13 12:44:00,82.0,67.0,30.08,NW,321,5.0,5.0,62,0.00,,,0.00,TxWx,2013-05-13 16:44:00,
2013-05-13 12:45:00,82.1,67.0,30.08,WNW,298,6.2,6.8,61,0.00,,,0.00,TxWx,2013-05-13 16:45:00,
2013-05-13 12:47:00,81.8,67.0,30.08,WNW,298,7.4,8.0,60,0.00,,,0.00,TxWx,2013-05-13 16:47:00,
2013-05-13 12:48:00,82.0,67.0,30.08,WNW,298,3.1,3.7,61,0.00,,,0.00,TxWx,2013-05-13 16:48:00,
2013-05-13 12:49:00,82.1,66.0,30.08,WNW,298,7.4,7.4,60,0.00,,,0.00,TxWx,2013-05-13 16:49:00,
2013-05-13 12:51:00,82.0,67.0,30.08,WNW,298,12.4,13.6,61,0.00,,,0.00,TxWx,2013-05-13 16:51:00,
2013-05-13 12:52:00,81.9,67.0,30.08,West,276,10.5,11.8,61,0.00,,,0.00,TxWx,2013-05-13 16:52:00,
2013-05-13 12:54:00,81.8,66.0,30.08,West,276,9.9,10.5,60,0.00,,,0.00,TxWx,2013-05-13 16:54:00,
2013-05-13 12:55:00,81.9,67.0,30.08,West,276,9.3,9.3,62,0.00,,,0.00,TxWx,2013-05-13 16:55:00,
2013-05-13 12:56:00,82.1,68.0,30.08,WNW,298,7.4,8.0,63,0.00,,,0.00,TxWx,2013-05-13 16:56:00,
2013-05-13 12:59:00,82.0,67.0,30.08,NNW,343,4.3,4.3,61,0.00,,,0.00,TxWx,2013-05-13 16:59:00,
2013-05-13 13:00:00,82.0,67.0,30.08,NW,321,4.3,5.6,61,0.00,,,0.00,TxWx,2013-05-13 17:00:00,
2013-05-13 13:01:00,82.2,68.0,30.08,WNW,298,7.4,7.4,62,0.00,,,0.00,TxWx,2013-05-13 17:01:00,
2013-05-13 13:03:00,81.7,67.0,30.08,WNW,298,7.4,7.4,61,0.00,,,0.00,TxWx,2013-05-13 17:03:00,
2013-05-13 13:06:00,81.8,67.0,30.08,WNW,298,9.3,10.5,62,0.00,,,0.00,TxWx,2013-05-13 17:06:00,
2013-05-13 13:07:00,81.8,68.0,30.08,WNW,298,9.9,9.9,63,0.00,,,0.00,TxWx,2013-05-13 17:07:00,
2013-05-13 13:09:00,81.8,67.0,30.08,West,276,11.1,11.1,62,0.00,,,0.00,TxWx,2013-05-13 17:09:00,
2013-05-13 13:11:00,81.8,68.0,30.08,West,276,9.9,9.9,62,0.00,,,0.00,TxWx,2013-05-13 17:11:00,
2013-05-13 13:12:00,81.8,68.0,30.08,WNW,298,6.8,8.0,62,0.00,,,0.00,TxWx,2013-05-13 17:12:00,
2013-05-13 13:14:00,81.8,67.0,30.08,WNW,298,5.0,5.0,62,0.00,,,0.00,TxWx,2013-05-13 17:14:00,
2013-05-13 13:15:00,82.1,67.0,30.08,West,276,5.6,5.6,62,0.00,,,0.00,TxWx,2013-05-13 17:15:00,
2013-05-13 13:16:00,82.3,68.0,30.08,WNW,298,7.4,7.4,62,0.00,,,0.00,TxWx,2013-05-13 17:16:00,
2013-05-13 13:17:00,82.3,67.0,30.08,NW,321,7.4,7.4,61,0.00,,,0.00,TxWx,2013-05-13 17:17:00,
2013-05-13 13:18:00,82.3,67.0,30.08,West,276,7.4,7.4,62,0.00,,,0.00,TxWx,2013-05-13 17:18:00,
2013-05-13 13:20:00,82.4,67.0,30.08,West,276,9.9,9.9,62,0.00,,,0.00,TxWx,2013-05-13 17:20:00,
2013-05-13 13:21:00,82.6,69.0,30.08,West,276,13.0,13.6,64,0.00,,,0.00,TxWx,2013-05-13 17:21:00,
2013-05-13 13:23:00,82.4,67.0,30.08,WSW,253,7.4,8.7,61,0.00,,,0.00,TxWx,2013-05-13 17:23:00,
2013-05-13 13:25:00,82.6,67.0,30.08,West,276,12.4,12.4,60,0.00,,,0.00,TxWx,2013-05-13 17:25:00,
2013-05-13 13:26:00,82.3,66.0,30.08,WNW,298,15.5,15.5,58,0.00,,,0.00,TxWx,2013-05-13 17:26:00,
2013-05-13 13:27:00,82.5,66.0,30.08,West,276,8.7,8.7,59,0.00,,,0.00,TxWx,2013-05-13 17:27:00,
2013-05-13 13:28:00,82.6,68.0,30.08,WSW,253,8.7,10.5,61,0.00,,,0.00,TxWx,2013-05-13 17:28:00,
2013-05-13 13:29:00,82.6,68.0,30.08,WSW,253,8.0,9.3,61,0.00,,,0.00,TxWx,2013-05-13 17:29:00,
2013-05-13 13:30:00,82.5,68.0,30.08,WSW,253,9.9,9.9,61,0.00,,,0.00,TxWx,2013-05-13 17:30:00,
2013-05-13 13:33:00,82.7,69.0,30.08,WNW,298,11.1,13.0,63,0.00,,,0.00,TxWx,2013-05-13 17:33:00,
2013-05-13 13:34:00,82.5,67.0,30.08,WNW,298,8.7,8.7,62,0.00,,,0.00,TxWx,2013-05-13 17:34:00,
2013-05-13 13:36:00,82.2,67.0,30.08,WNW,298,8.0,8.0,61,0.00,,,0.00,TxWx,2013-05-13 17:36:00,
2013-05-13 13:38:00,82.3,67.0,30.08,WNW,298,9.9,11.8,61,0.00,,,0.00,TxWx,2013-05-13 17:38:00,
2013-05-13 13:39:00,82.5,68.0,30.08,NW,321,6.2,6.2,62,0.00,,,0.00,TxWx,2013-05-13 17:39:00,
2013-05-13 13:41:00,82.4,66.0,30.08,NW,321,7.4,8.0,60,0.00,,,0.00,TxWx,2013-05-13 17:41:00,
2013-05-13 13:44:00,82.6,68.0,30.08,WNW,298,6.8,8.0,61,0.00,,,0.00,TxWx,2013-05-13 17:44:00,
2013-05-13 13:45:00,82.8,69.0,30.08,WNW,298,8.7,9.3,63,0.00,,,0.00,TxWx,2013-05-13 17:45:00,
2013-05-13 13:46:00,82.6,67.0,30.08,West,276,8.7,9.3,58,0.00,,,0.00,TxWx,2013-05-13 17:46:00,
2013-05-13 13:47:00,82.7,68.0,30.08,West,276,8.7,9.9,61,0.00,,,0.00,TxWx,2013-05-13 17:47:00,
2013-05-13 13:49:00,82.5,67.0,30.08,WNW,298,9.3,9.9,59,0.00,,,0.00,TxWx,2013-05-13 17:49:00,
2013-05-13 13:50:00,82.4,65.0,30.08,WNW,298,13.6,13.6,58,0.00,,,0.00,TxWx,2013-05-13 17:50:00,
2013-05-13 13:51:00,82.4,65.0,30.08,WNW,298,13.0,13.0,57,0.00,,,0.00,TxWx,2013-05-13 17:51:00,
2013-05-13 13:53:00,82.3,65.0,30.08,WNW,298,8.0,9.3,57,0.00,,,0.00,TxWx,2013-05-13 17:53:00,
2013-05-13 13:54:00,82.4,65.0,30.08,WNW,298,13.0,13.6,57,0.00,,,0.00,TxWx,2013-05-13 17:54:00,
2013-05-13 13:56:00,82.7,66.0,30.08,WNW,298,8.0,8.0,58,0.00,,,0.00,TxWx,2013-05-13 17:56:00,
2013-05-13 13:58:00,82.7,66.0,30.08,WNW,298,6.8,7.4,57,0.00,,,0.00,TxWx,2013-05-13 17:58:00,
2013-05-13 13:59:00,82.8,66.0,30.08,NNW,343,6.8,6.8,57,0.00,,,0.00,TxWx,2013-05-13 17:59:00,
2013-05-13 14:00:00,83.0,66.0,30.08,NW,321,5.6,5.6,58,0.00,,,0.00,TxWx,2013-05-13 18:00:00,
2013-05-13 14:01:00,82.7,65.0,30.08,NW,321,6.2,6.8,56,0.00,,,0.00,TxWx,2013-05-13 18:01:00,
2013-05-13 14:03:00,82.7,66.0,30.08,NNW,343,9.3,10.5,57,0.00,,,0.00,TxWx,2013-05-13 18:03:00,
2013-05-13 14:05:00,82.7,66.0,30.08,NW,321,9.3,9.9,57,0.00,,,0.00,TxWx,2013-05-13 18:05:00,
2013-05-13 14:07:00,82.7,66.0,30.07,North,6,7.4,7.4,57,0.00,,,0.00,TxWx,2013-05-13 18:07:00,
2013-05-13 14:09:00,82.8,66.0,30.08,WNW,298,6.8,6.8,57,0.00,,,0.00,TxWx,2013-05-13 18:09:00,
2013-05-13 14:10:00,83.0,66.0,30.08,WNW,298,6.8,6.8,56,0.00,,,0.00,TxWx,2013-05-13 18:10:00,
2013-05-13 14:12:00,82.9,65.0,30.08,NW,321,9.3,10.5,56,0.00,,,0.00,TxWx,2013-05-13 18:12:00,
2013-05-13 14:14:00,83.1,64.0,30.08,WNW,298,5.0,6.2,53,0.00,,,0.00,TxWx,2013-05-13 18:14:00,
2013-05-13 14:16:00,83.4,66.0,30.07,NW,321,5.0,5.0,57,0.00,,,0.00,TxWx,2013-05-13 18:16:00,
2013-05-13 14:17:00,83.3,65.0,30.07,West,276,6.8,6.8,56,0.00,,,0.00,TxWx,2013-05-13 18:17:00,
2013-05-13 14:21:00,82.9,64.0,30.07,WNW,298,8.7,8.7,53,0.00,,,0.00,TxWx,2013-05-13 18:21:00,
2013-05-13 14:22:00,83.0,65.0,30.07,WNW,298,12.4,12.4,55,0.00,,,0.00,TxWx,2013-05-13 18:22:00,
2013-05-13 14:23:00,82.9,65.0,30.07,WSW,253,13.6,14.9,54,0.00,,,0.00,TxWx,2013-05-13 18:23:00,
2013-05-13 14:24:00,83.1,65.0,30.07,NNW,343,6.8,9.3,55,0.00,,,0.00,TxWx,2013-05-13 18:24:00,
2013-05-13 14:27:00,83.1,65.0,30.07,NNW,343,9.9,9.9,54,0.00,,,0.00,TxWx,2013-05-13 18:27:00,
2013-05-13 14:28:00,83.3,65.0,30.07,NW,321,6.2,6.8,54,0.00,,,0.00,TxWx,2013-05-13 18:28:00,
2013-05-13 14:29:00,83.3,65.0,30.07,NW,321,8.7,8.7,55,0.00,,,0.00,TxWx,2013-05-13 18:29:00,
2013-05-13 14:31:00,83.3,64.0,30.08,WNW,298,5.6,6.2,54,0.00,,,0.00,TxWx,2013-05-13 18:31:00,
2013-05-13 14:34:00,83.5,66.0,30.07,NW,321,4.3,4.3,55,0.00,,,0.00,TxWx,2013-05-13 18:34:00,
2013-05-13 14:35:00,83.5,64.0,30.07,WNW,298,8.7,10.5,54,0.00,,,0.00,TxWx,2013-05-13 18:35:00,
2013-05-13 14:37:00,83.3,66.0,30.07,West,276,10.5,10.5,56,0.00,,,0.00,TxWx,2013-05-13 18:37:00,
2013-05-13 14:39:00,83.4,67.0,30.07,WNW,298,7.4,7.4,58,0.00,,,0.00,TxWx,2013-05-13 18:39:00,
2013-05-13 14:41:00,83.4,65.0,30.07,West,276,13.0,13.0,56,0.00,,,0.00,TxWx,2013-05-13 18:41:00,
2013-05-13 14:43:00,83.3,66.0,30.07,NW,321,9.9,9.9,56,0.00,,,0.00,TxWx,2013-05-13 18:43:00,
2013-05-13 14:44:00,83.3,66.0,30.07,WNW,298,12.4,12.4,56,0.00,,,0.00,TxWx,2013-05-13 18:44:00,
2013-05-13 14:45:00,83.1,64.0,30.07,WNW,298,11.1,11.1,54,0.00,,,0.00,TxWx,2013-05-13 18:45:00,
2013-05-13 14:48:00,83.2,65.0,30.07,NNW,343,6.8,8.7,56,0.00,,,0.00,TxWx,2013-05-13 18:48:00,
2013-05-13 14:49:00,83.2,66.0,30.07,West,276,10.5,10.5,56,0.00,,,0.00,TxWx,2013-05-13 18:49:00,
2013-05-13 14:50:00,83.3,65.0,30.07,WNW,298,7.4,7.4,56,0.00,,,0.00,TxWx,2013-05-13 18:50:00,
2013-05-13 14:51:00,83.3,65.0,30.07,WNW,298,5.6,6.2,54,0.00,,,0.00,TxWx,2013-05-13 18:51:00,
2013-05-13 14:53:00,83.3,64.0,30.07,WNW,298,8.0,8.7,53,0.00,,,0.00,TxWx,2013-05-13 18:53:00,
2013-05-13 14:55:00,83.7,65.0,30.07,NW,321,5.0,5.0,54,0.00,,,0.00,TxWx,2013-05-13 18:55:00,
2013-05-13 14:56:00,83.8,66.0,30.07,NNW,343,6.8,6.8,55,0.00,,,0.00,TxWx,2013-05-13 18:56:00,
2013-05-13 14:59:00,83.6,64.0,30.07,West,276,5.0,5.6,52,0.00,,,0.00,TxWx,2013-05-13 18:59:00,
2013-05-13 15:01:00,83.9,65.0,30.07,West,276,10.5,10.5,53,0.00,,,0.00,TxWx,2013-05-13 19:01:00,
2013-05-13 15:02:00,84.0,65.0,30.06,WNW,298,5.6,5.6,54,0.00,,,0.00,TxWx,2013-05-13 19:02:00,
2013-05-13 15:03:00,84.1,65.0,30.07,NW,321,7.4,7.4,53,0.00,,,0.00,TxWx,2013-05-13 19:03:00,
2013-05-13 15:04:00,84.2,66.0,30.07,NW,321,4.3,5.0,55,0.00,,,0.00,TxWx,2013-05-13 19:04:00,
2013-05-13 15:05:00,84.2,66.0,30.07,West,276,3.1,4.3,55,0.00,,,0.00,TxWx,2013-05-13 19:05:00,
2013-05-13 15:07:00,84.2,65.0,30.06,NE,51,4.3,4.3,53,0.00,,,0.00,TxWx,2013-05-13 19:07:00,
2013-05-13 15:09:00,84.2,65.0,30.06,NW,321,9.9,9.9,53,0.00,,,0.00,TxWx,2013-05-13 19:09:00,
2013-05-13 15:10:00,84.0,64.0,30.06,West,276,6.2,6.8,51,0.00,,,0.00,TxWx,2013-05-13 19:10:00,
2013-05-13 15:11:00,84.0,64.0,30.06,WNW,298,5.0,5.0,51,0.00,,,0.00,TxWx,2013-05-13 19:11:00,
2013-05-13 15:14:00,84.2,64.0,30.06,WNW,298,5.0,6.2,51,0.00,,,0.00,TxWx,2013-05-13 19:14:00,
2013-05-13 15:15:00,84.1,64.0,30.06,West,276,3.7,4.3,51,0.00,,,0.00,TxWx,2013-05-13 19:15:00,
2013-05-13 15:17:00,84.0,64.0,30.06,NW,321,6.8,8.7,52,0.00,,,0.00,TxWx,2013-05-13 19:17:00,
2013-05-13 15:18:00,84.0,64.0,30.06,NNW,343,4.3,5.0,52,0.00,,,0.00,TxWx,2013-05-13 19:18:00,
2013-05-13 15:21:00,83.1,67.0,30.06,North,6,4.3,5.0,59,0.00,,,0.00,TxWx,2013-05-13 19:21:00,
2013-05-13 15:22:00,82.7,69.0,30.06,SSE,163,3.1,3.7,63,0.00,,,0.00,TxWx,2013-05-13 19:22:00,
2013-05-13 15:23:00,82.4,68.0,30.06,North,6,3.7,5.0,64,0.00,,,0.00,TxWx,2013-05-13 19:23:00,
2013-05-13 15:24:00,81.7,69.0,30.06,East,96,7.4,7.4,65,0.00,,,0.00,TxWx,2013-05-13 19:24:00,
2013-05-13 15:26:00,81.6,70.0,30.06,North,6,8.0,8.0,68,0.00,,,0.00,TxWx,2013-05-13 19:26:00,
2013-05-13 15:28:00,81.2,70.0,30.06,ENE,73,5.0,5.0,69,0.00,,,0.00,TxWx,2013-05-13 19:28:00,
2013-05-13 15:29:00,81.3,70.0,30.06,NNW,343,6.2,6.2,69,0.00,,,0.00,TxWx,2013-05-13 19:29:00,
2013-05-13 15:30:00,81.2,70.0,30.06,East,96,6.2,11.1,69,0.00,,,0.00,TxWx,2013-05-13 19:30:00,
2013-05-13 15:31:00,80.8,70.0,30.06,NE,51,11.1,11.1,69,0.00,,,0.00,TxWx,2013-05-13 19:31:00,
2013-05-13 15:35:00,80.2,69.0,30.06,NNW,343,8.7,8.7,70,0.00,,,0.00,TxWx,2013-05-13 19:35:00,
2013-05-13 15:36:00,80.3,70.0,30.06,East,96,4.3,4.3,71,0.00,,,0.00,TxWx,2013-05-13 19:36:00,
2013-05-13 15:37:00,80.0,70.0,30.06,NE,51,4.3,5.6,71,0.00,,,0.00,TxWx,2013-05-13 19:37:00,
2013-05-13 15:38:00,80.0,70.0,30.06,North,6,6.8,8.7,71,0.00,,,0.00,TxWx,2013-05-13 19:38:00,
2013-05-13 15:40:00,79.8,70.0,30.06,NE,51,5.0,6.2,71,0.00,,,0.00,TxWx,2013-05-13 19:40:00,
2013-05-13 15:42:00,79.7,70.0,30.06,ESE,118,4.3,6.2,72,0.00,,,0.00,TxWx,2013-05-13 19:42:00,
2013-05-13 15:43:00,79.9,70.0,30.06,NNE,28,5.0,5.0,72,0.00,,,0.00,TxWx,2013-05-13 19:43:00,
2013-05-13 15:45:00,79.6,70.0,30.06,WNW,298,5.0,5.0,73,0.00,,,0.00,TxWx,2013-05-13 19:45:00,
2013-05-13 15:48:00,79.3,69.0,30.05,WNW,298,5.6,5.6,72,0.00,,,0.00,TxWx,2013-05-13 19:48:00,
2013-05-13 15:49:00,79.1,69.0,30.06,NNE,28,6.2,8.0,72,0.00,,,0.00,TxWx,2013-05-13 19:49:00,
2013-05-13 15:50:00,79.2,69.0,30.06,NE,51,3.7,5.0,72,0.00,,,0.00,TxWx,2013-05-13 19:50:00,
2013-05-13 15:51:00,79.1,69.0,30.05,NE,51,9.3,9.3,73,0.00,,,0.00,TxWx,2013-05-13 19:51:00,
2013-05-13 15:54:00,79.1,70.0,30.05,NNE,28,8.0,8.0,74,0.00,,,0.00,TxWx,2013-05-13 19:54:00,
2013-05-13 15:55:00,78.9,70.0,30.05,NNW,343,6.2,8.0,74,0.00,,,0.00,TxWx,2013-05-13 19:55:00,
2013-05-13 15:56:00,78.8,70.0,30.05,NW,321,5.0,5.0,74,0.00,,,0.00,TxWx,2013-05-13 19:56:00,
2013-05-13 15:57:00,79.1,70.0,30.05,ENE,73,3.1,3.7,74,0.00,,,0.00,TxWx,2013-05-13 19:57:00,
2013-05-13 15:59:00,79.5,70.0,30.05,North,6,8.7,8.7,75,0.00,,,0.00,TxWx,2013-05-13 19:59:00,
2013-05-13 16:00:00,79.2,70.0,30.05,ENE,73,4.3,4.3,74,0.00,,,0.00,TxWx,2013-05-13 20:00:00,
2013-05-13 16:01:00,79.4,70.0,30.05,ENE,73,2.5,3.7,74,0.00,,,0.00,TxWx,2013-05-13 20:01:00,
2013-05-13 16:02:00,79.5,71.0,30.05,NW,321,3.7,5.0,74,0.00,,,0.00,TxWx,2013-05-13 20:02:00,
2013-05-13 16:03:00,79.5,71.0,30.05,NNE,28,9.3,9.3,74,0.00,,,0.00,TxWx,2013-05-13 20:03:00,
2013-05-13 16:05:00,79.3,70.0,30.05,ENE,73,9.9,10.5,73,0.00,,,0.00,TxWx,2013-05-13 20:05:00,
2013-05-13 16:07:00,79.3,70.0,30.05,NE,51,9.3,9.3,73,0.00,,,0.00,TxWx,2013-05-13 20:07:00,
2013-05-13 16:08:00,79.2,69.0,30.05,NNE,28,4.3,5.6,73,0.00,,,0.00,TxWx,2013-05-13 20:08:00,
2013-05-13 16:09:00,79.4,69.0,30.05,NE,51,5.0,6.8,73,0.00,,,0.00,TxWx,2013-05-13 20:09:00,
2013-05-13 16:12:00,79.8,71.0,30.05,NW,321,4.3,6.8,73,0.00,,,0.00,TxWx,2013-05-13 20:12:00,
2013-05-13 16:14:00,79.7,70.0,30.05,ENE,73,5.6,5.6,73,0.00,,,0.00,TxWx,2013-05-13 20:14:00,
2013-05-13 16:15:00,79.4,69.0,30.05,NNE,28,10.5,10.5,72,0.00,,,0.00,TxWx,2013-05-13 20:15:00,
2013-05-13 16:20:00,79.7,70.0,30.05,NW,321,4.3,5.0,73,0.00,,,0.00,TxWx,2013-05-13 20:20:00,
2013-05-13 16:21:00,79.8,70.0,30.05,NNE,28,3.7,3.7,73,0.00,,,0.00,TxWx,2013-05-13 20:21:00,
2013-05-13 16:22:00,79.8,70.0,30.05,NNE,28,8.7,8.7,72,0.00,,,0.00,TxWx,2013-05-13 20:22:00,
2013-05-13 16:25:00,79.7,70.0,30.05,East,96,5.0,6.2,72,0.00,,,0.00,TxWx,2013-05-13 20:25:00,
2013-05-13 16:26:00,79.5,70.0,30.05,North,6,5.6,6.2,72,0.00,,,0.00,TxWx,2013-05-13 20:26:00,
2013-05-13 16:27:00,79.3,69.0,30.05,East,96,3.1,5.0,72,0.00,,,0.00,TxWx,2013-05-13 20:27:00,
2013-05-13 16:28:00,79.5,71.0,30.05,North,6,5.6,6.2,73,0.00,,,0.00,TxWx,2013-05-13 20:28:00,
2013-05-13 16:31:00,79.7,71.0,30.05,NE,51,4.3,5.6,74,0.00,,,0.00,TxWx,2013-05-13 20:31:00,
2013-05-13 16:32:00,79.5,71.0,30.05,NE,51,6.8,6.8,73,0.00,,,0.00,TxWx,2013-05-13 20:32:00,
2013-05-13 16:33:00,79.5,69.0,30.05,NNE,28,7.4,7.4,73,0.00,,,0.00,TxWx,2013-05-13 20:33:00,
2013-05-13 16:34:00,79.5,69.0,30.05,NNW,343,4.3,5.0,72,0.00,,,0.00,TxWx,2013-05-13 20:34:00,
2013-05-13 16:37:00,78.8,69.0,30.05,NNW,343,6.8,8.7,72,0.00,,,0.00,TxWx,2013-05-13 20:37:00,
2013-05-13 16:38:00,79.1,69.0,30.05,NW,321,5.0,5.6,73,0.00,,,0.00,TxWx,2013-05-13 20:38:00,
2013-05-13 16:39:00,78.9,69.0,30.05,NE,51,7.4,7.4,72,0.00,,,0.00,TxWx,2013-05-13 20:39:00,
2013-05-13 16:42:00,78.9,69.0,30.05,NNE,28,5.6,5.6,72,0.00,,,0.00,TxWx,2013-05-13 20:42:00,
2013-05-13 16:44:00,79.1,69.0,30.05,North,6,6.2,6.2,72,0.00,,,0.00,TxWx,2013-05-13 20:44:00,
2013-05-13 16:46:00,79.2,69.0,30.05,NE,51,3.7,4.3,72,0.00,,,0.00,TxWx,2013-05-13 20:46:00,
2013-05-13 16:47:00,79.1,69.0,30.05,North,6,13.0,13.0,71,0.00,,,0.00,TxWx,2013-05-13 20:47:00,
2013-05-13 16:49:00,79.5,70.0,30.05,NNE,28,7.4,7.4,72,0.00,,,0.00,TxWx,2013-05-13 20:49:00,
2013-05-13 16:50:00,79.1,69.0,30.05,NNE,28,8.7,8.7,71,0.00,,,0.00,TxWx,2013-05-13 20:50:00,
2013-05-13 16:52:00,79.0,68.0,30.04,NNE,28,7.4,8.7,70,0.00,,,0.00,TxWx,2013-05-13 20:52:00,
2013-05-13 16:53:00,79.3,69.0,30.05,NE,51,5.6,6.8,71,0.00,,,0.00,TxWx,2013-05-13 20:53:00,
2013-05-13 16:55:00,79.3,69.0,30.05,West,276,3.1,5.0,71,0.00,,,0.00,TxWx,2013-05-13 20:55:00,
2013-05-13 16:56:00,79.2,68.0,30.05,North,6,4.3,4.3,70,0.00,,,0.00,TxWx,2013-05-13 20:56:00,
2013-05-13 16:57:00,79.3,69.0,30.05,NE,51,6.8,6.8,71,0.00,,,0.00,TxWx,2013-05-13 20:57:00,
2013-05-13 16:58:00,79.1,69.0,30.05,NE,51,6.8,6.8,71,0.00,,,0.00,TxWx,2013-05-13 20:58:00,
2013-05-13 17:00:00,78.9,68.0,30.05,ESE,118,8.0,8.0,70,0.00,,,0.00,TxWx,2013-05-13 21:00:00,
2013-05-13 17:01:00,78.9,68.0,30.04,SSE,163,3.1,4.3,70,0.00,,,0.00,TxWx,2013-05-13 21:01:00,
2013-05-13 17:02:00,79.0,69.0,30.04,NE,51,3.7,4.3,71,0.00,,,0.00,TxWx,2013-05-13 21:02:00,
2013-05-13 17:03:00,79.1,69.0,30.04,North,6,5.6,6.8,71,0.00,,,0.00,TxWx,2013-05-13 21:03:00,
2013-05-13 17:05:00,79.0,69.0,30.04,North,6,5.6,9.3,71,0.00,,,0.00,TxWx,2013-05-13 21:05:00,
2013-05-13 17:07:00,79.0,68.0,30.04,NE,51,12.4,13.0,70,0.00,,,0.00,TxWx,2013-05-13 21:07:00,
2013-05-13 17:08:00,79.0,68.0,30.04,NE,51,8.0,9.9,70,0.00,,,0.00,TxWx,2013-05-13 21:08:00,
2013-05-13 17:09:00,78.8,68.0,30.05,NNE,28,10.5,14.2,70,0.00,,,0.00,TxWx,2013-05-13 21:09:00,
2013-05-13 17:11:00,79.0,68.0,30.05,East,96,5.0,6.2,70,0.00,,,0.00,TxWx,2013-05-13 21:11:00,
2013-05-13 17:13:00,79.1,68.0,30.05,NNE,28,6.2,6.2,70,0.00,,,0.00,TxWx,2013-05-13 21:13:00,
2013-05-13 17:14:00,79.1,68.0,30.05,WSW,253,3.1,3.1,70,0.00,,,0.00,TxWx,2013-05-13 21:14:00,
2013-05-13 17:16:00,78.8,68.0,30.05,NNW,343,4.3,6.2,69,0.00,,,0.00,TxWx,2013-05-13 21:16:00,
2013-05-13 17:17:00,79.0,68.0,30.05,NNW,343,6.8,6.8,69,0.00,,,0.00,TxWx,2013-05-13 21:17:00,
2013-05-13 17:19:00,78.9,68.0,30.05,ENE,73,4.3,5.0,69,0.00,,,0.00,TxWx,2013-05-13 21:19:00,
2013-05-13 17:20:00,78.9,68.0,30.05,NNE,28,9.9,9.9,69,0.00,,,0.00,TxWx,2013-05-13 21:20:00,
2013-05-13 17:21:00,78.8,68.0,30.05,ENE,73,8.0,8.0,69,0.00,,,0.00,TxWx,2013-05-13 21:21:00,
2013-05-13 17:22:00,78.7,68.0,30.05,NNW,343,5.0,5.6,69,0.00,,,0.00,TxWx,2013-05-13 21:22:00,
2013-05-13 17:25:00,78.7,67.0,30.05,NNE,28,6.8,9.9,68,0.00,,,0.00,TxWx,2013-05-13 21:25:00,
2013-05-13 17:26:00,79.0,68.0,30.05,NNE,28,3.1,3.1,69,0.00,,,0.00,TxWx,2013-05-13 21:26:00,
2013-05-13 17:27:00,78.9,68.0,30.05,NE,51,6.8,6.8,69,0.00,,,0.00,TxWx,2013-05-13 21:27:00,
2013-05-13 17:28:00,79.0,68.0,30.05,East,96,6.2,6.2,69,0.00,,,0.00,TxWx,2013-05-13 21:28:00,
2013-05-13 17:31:00,79.1,68.0,30.05,NE,51,3.7,4.3,69,0.00,,,0.00,TxWx,2013-05-13 21:31:00,
2013-05-13 17:33:00,79.0,67.0,30.05,NNE,28,8.0,9.3,68,0.00,,,0.00,TxWx,2013-05-13 21:33:00,
2013-05-13 17:35:00,79.0,67.0,30.04,NE,51,6.8,9.9,68,0.00,,,0.00,TxWx,2013-05-13 21:35:00,
2013-05-13 17:38:00,79.1,67.0,30.05,NW,321,4.3,4.3,67,0.00,,,0.00,TxWx,2013-05-13 21:38:00,
2013-05-13 17:39:00,79.2,67.0,30.04,NNE,28,11.8,11.8,68,0.00,,,0.00,TxWx,2013-05-13 21:39:00,
2013-05-13 17:40:00,79.1,67.0,30.05,NW,321,7.4,7.4,68,0.00,,,0.00,TxWx,2013-05-13 21:40:00,
2013-05-13 17:43:00,79.1,67.0,30.04,NNE,28,6.2,8.0,67,0.00,,,0.00,TxWx,2013-05-13 21:43:00,
2013-05-13 17:46:00,79.0,67.0,30.04,WNW,298,6.2,6.2,66,0.00,,,0.00,TxWx,2013-05-13 21:46:00,
2013-05-13 17:47:00,78.8,67.0,30.04,NNW,343,6.2,6.2,66,0.00,,,0.00,TxWx,2013-05-13 21:47:00,
2013-05-13 17:48:00,78.8,67.0,30.04,NNE,28,9.9,11.1,66,0.00,,,0.00,TxWx,2013-05-13 21:48:00,
2013-05-13 17:49:00,78.7,66.0,30.04,NNW,343,6.8,10.5,66,0.00,,,0.00,TxWx,2013-05-13 21:49:00,
2013-05-13 17:51:00,78.9,67.0,30.04,NNE,28,3.7,3.7,66,0.00,,,0.00,TxWx,2013-05-13 21:51:00,
2013-05-13 17:53:00,78.9,67.0,30.04,NW,321,6.8,6.8,66,0.00,,,0.00,TxWx,2013-05-13 21:53:00,
2013-05-13 17:55:00,78.8,66.0,30.04,North,6,5.6,7.4,66,0.00,,,0.00,TxWx,2013-05-13 21:55:00,
2013-05-13 17:56:00,78.7,66.0,30.04,ENE,73,3.7,3.7,66,0.00,,,0.00,TxWx,2013-05-13 21:56:00,
2013-05-13 17:57:00,78.8,67.0,30.04,NW,321,5.0,5.0,66,0.00,,,0.00,TxWx,2013-05-13 21:57:00,
2013-05-13 18:00:00,78.5,65.0,30.04,North,6,6.8,7.4,65,0.00,,,0.00,TxWx,2013-05-13 22:00:00,
2013-05-13 18:03:00,78.6,66.0,30.04,South,186,3.7,5.0,66,0.00,,,0.00,TxWx,2013-05-13 22:03:00,
2013-05-13 18:04:00,78.7,67.0,30.04,NNW,343,6.2,7.4,66,0.00,,,0.00,TxWx,2013-05-13 22:04:00,
2013-05-13 18:05:00,78.8,67.0,30.04,North,6,7.4,7.4,67,0.00,,,0.00,TxWx,2013-05-13 22:05:00,
2013-05-13 18:08:00,78.8,67.0,30.04,NNE,28,3.7,4.3,68,0.00,,,0.00,TxWx,2013-05-13 22:08:00,
2013-05-13 18:09:00,78.8,67.0,30.04,West,276,5.0,5.0,68,0.00,,,0.00,TxWx,2013-05-13 22:09:00,
2013-05-13 18:11:00,79.0,68.0,30.04,NNE,28,5.0,5.6,69,0.00,,,0.00,TxWx,2013-05-13 22:11:00,
2013-05-13 18:12:00,79.0,67.0,30.04,North,6,3.7,4.3,68,0.00,,,0.00,TxWx,2013-05-13 22:12:00,
2013-05-13 18:13:00,78.9,67.0,30.04,North,6,4.3,5.6,66,0.00,,,0.00,TxWx,2013-05-13 22:13:00,
2013-05-13 18:15:00,78.9,66.0,30.04,West,276,4.3,5.0,66,0.00,,,0.00,TxWx,2013-05-13 22:15:00,
2013-05-13 18:16:00,78.7,66.0,30.03,NNW,343,10.5,13.6,66,0.00,,,0.00,TxWx,2013-05-13 22:16:00,
2013-05-13 18:17:00,78.8,67.0,30.04,North,6,3.7,3.7,66,0.00,,,0.00,TxWx,2013-05-13 22:17:00,
2013-05-13 18:21:00,78.8,66.0,30.04,North,6,7.4,7.4,65,0.00,,,0.00,TxWx,2013-05-13 22:21:00,
2013-05-13 18:23:00,78.7,66.0,30.03,NNE,28,6.8,9.3,64,0.00,,,0.00,TxWx,2013-05-13 22:23:00,
2013-05-13 18:27:00,79.0,66.0,30.03,NNW,343,4.3,4.3,65,0.00,,,0.00,TxWx,2013-05-13 22:27:00,
2013-05-13 18:28:00,78.9,66.0,30.03,NE,51,6.2,6.8,65,0.00,,,0.00,TxWx,2013-05-13 22:28:00,
2013-05-13 18:30:00,78.9,66.0,30.03,WSW,253,1.9,2.5,66,0.00,,,0.00,TxWx,2013-05-13 22:30:00,
2013-05-13 18:34:00,78.8,66.0,30.04,NNW,343,7.4,7.4,65,0.00,,,0.00,TxWx,2013-05-13 22:34:00,
2013-05-13 18:35:00,78.7,66.0,30.04,North,6,4.3,4.3,65,0.00,,,0.00,TxWx,2013-05-13 22:35:00,
2013-05-13 18:36:00,78.5,66.0,30.04,NNW,343,9.3,9.3,65,0.00,,,0.00,TxWx,2013-05-13 22:36:00,
2013-05-13 18:40:00,78.4,66.0,30.04,NNE,28,7.4,7.4,67,0.00,,,0.00,TxWx,2013-05-13 22:40:00,
2013-05-13 18:42:00,78.4,66.0,30.04,North,6,6.2,6.8,66,0.00,,,0.00,TxWx,2013-05-13 22:42:00,
2013-05-13 18:43:00,78.6,67.0,30.04,SE,141,2.5,2.5,67,0.00,,,0.00,TxWx,2013-05-13 22:43:00,
2013-05-13 18:45:00,78.5,67.0,30.04,SW,231,1.2,1.2,67,0.00,,,0.00,TxWx,2013-05-13 22:45:00,
2013-05-13 18:48:00,78.4,65.0,30.04,North,6,2.5,2.5,66,0.00,,,0.00,TxWx,2013-05-13 22:48:00,
2013-05-13 18:49:00,78.4,65.0,30.04,NNE,28,2.5,3.7,66,0.00,,,0.00,TxWx,2013-05-13 22:49:00,
2013-05-13 18:51:00,78.3,65.0,30.03,North,6,7.4,7.4,65,0.00,,,0.00,TxWx,2013-05-13 22:51:00,
2013-05-13 18:54:00,78.0,65.0,30.03,NNW,343,6.2,6.2,65,0.00,,,0.00,TxWx,2013-05-13 22:54:00,
2013-05-13 18:55:00,78.1,65.0,30.03,NNW,343,4.3,4.3,66,0.00,,,0.00,TxWx,2013-05-13 22:55:00,
2013-05-13 18:56:00,78.1,66.0,30.03,NNW,343,3.1,3.7,66,0.00,,,0.00,TxWx,2013-05-13 22:56:00,
2013-05-13 18:59:00,78.0,65.0,30.03,NNW,343,3.1,3.1,66,0.00,,,0.00,TxWx,2013-05-13 22:59:00,
2013-05-13 19:01:00,78.2,65.0,30.03,NNE,28,3.7,4.3,66,0.00,,,0.00,TxWx,2013-05-13 23:01:00,
2013-05-13 19:02:00,78.0,65.0,30.03,North,6,8.7,8.7,65,0.00,,,0.00,TxWx,2013-05-13 23:02:00,
2013-05-13 19:03:00,78.0,65.0,30.03,NNW,343,3.1,3.7,65,0.00,,,0.00,TxWx,2013-05-13 23:03:00,
2013-05-13 19:05:00,77.9,65.0,30.03,NNE,28,7.4,9.3,66,0.00,,,0.00,TxWx,2013-05-13 23:05:00,
2013-05-13 19:07:00,78.0,66.0,30.04,SSE,163,1.9,1.9,66,0.00,,,0.00,TxWx,2013-05-13 23:07:00,
2013-05-13 19:08:00,77.9,66.0,30.04,NE,51,6.8,7.4,67,0.00,,,0.00,TxWx,2013-05-13 23:08:00,
2013-05-13 19:09:00,77.8,65.0,30.04,NE,51,8.7,8.7,66,0.00,,,0.00,TxWx,2013-05-13 23:09:00,
2013-05-13 19:11:00,77.7,65.0,30.04,NW,321,6.2,6.2,66,0.00,,,0.00,TxWx,2013-05-13 23:11:00,
2013-05-13 19:12:00,77.7,65.0,30.04,NW,321,3.1,3.1,66,0.00,,,0.00,TxWx,2013-05-13 23:12:00,
2013-05-13 19:13:00,77.7,66.0,30.04,NE,51,8.0,8.0,66,0.00,,,0.00,TxWx,2013-05-13 23:13:00,
2013-05-13 19:15:00,77.7,66.0,30.03,North,6,5.0,5.0,67,0.00,,,0.00,TxWx,2013-05-13 23:15:00,
2013-05-13 19:16:00,77.7,66.0,30.04,NE,51,5.0,5.0,67,0.00,,,0.00,TxWx,2013-05-13 23:16:00,
2013-05-13 19:18:00,77.7,66.0,30.04,NW,321,5.0,5.0,67,0.00,,,0.00,TxWx,2013-05-13 23:18:00,
2013-05-13 19:21:00,77.7,65.0,30.04,NNW,343,3.1,3.7,65,0.00,,,0.00,TxWx,2013-05-13 23:21:00,
2013-05-13 19:22:00,77.7,65.0,30.04,NNE,28,6.2,6.8,65,0.00,,,0.00,TxWx,2013-05-13 23:22:00,
2013-05-13 19:23:00,77.7,65.0,30.04,WNW,298,6.2,8.0,65,0.00,,,0.00,TxWx,2013-05-13 23:23:00,
2013-05-13 19:24:00,77.6,65.0,30.04,North,6,12.4,12.4,64,0.00,,,0.00,TxWx,2013-05-13 23:24:00,
2013-05-13 19:26:00,77.7,65.0,30.04,ENE,73,4.3,4.3,64,0.00,,,0.00,TxWx,2013-05-13 23:26:00,
2013-05-13 19:27:00,77.7,65.0,30.04,NNW,343,5.6,5.6,65,0.00,,,0.00,TxWx,2013-05-13 23:27:00,
2013-05-13 19:30:00,77.9,66.0,30.04,North,6,3.1,3.1,66,0.00,,,0.00,TxWx,2013-05-13 23:30:00,
2013-05-13 19:31:00,77.9,66.0,30.04,NW,321,1.2,1.9,67,0.00,,,0.00,TxWx,2013-05-13 23:31:00,
2013-05-13 19:32:00,77.8,66.0,30.04,NNE,28,4.3,4.3,66,0.00,,,0.00,TxWx,2013-05-13 23:32:00,
2013-05-13 19:35:00,77.6,65.0,30.04,NNW,343,3.7,5.6,65,0.00,,,0.00,TxWx,2013-05-13 23:35:00,
2013-05-13 19:36:00,77.6,65.0,30.04,North,6,6.2,6.8,65,0.00,,,0.00,TxWx,2013-05-13 23:36:00,
2013-05-13 19:37:00,77.6,65.0,30.04,NNW,343,1.9,3.1,65,0.00,,,0.00,TxWx,2013-05-13 23:37:00,
2013-05-13 19:38:00,77.7,65.0,30.04,NNE,28,3.1,3.1,65,0.00,,,0.00,TxWx,2013-05-13 23:38:00,
2013-05-13 19:42:00,77.4,64.0,30.04,NNW,343,6.2,6.8,65,0.00,,,0.00,TxWx,2013-05-13 23:42:00,
2013-05-13 19:43:00,77.4,64.0,30.04,North,6,3.7,4.3,65,0.00,,,0.00,TxWx,2013-05-13 23:43:00,
2013-05-13 19:44:00,77.4,64.0,30.04,NNW,343,4.3,4.3,65,0.00,,,0.00,TxWx,2013-05-13 23:44:00,
2013-05-13 19:46:00,77.4,64.0,30.05,NW,321,5.0,5.0,65,0.00,,,0.00,TxWx,2013-05-13 23:46:00,
2013-05-13 19:48:00,77.4,64.0,30.04,WNW,298,3.7,4.3,65,0.00,,,0.00,TxWx,2013-05-13 23:48:00,
2013-05-13 19:49:00,77.4,65.0,30.05,North,6,1.2,1.9,66,0.00,,,0.00,TxWx,2013-05-13 23:49:00,
2013-05-13 19:51:00,77.3,65.0,30.05,NNW,343,3.7,4.3,66,0.00,,,0.00,TxWx,2013-05-13 23:51:00,
2013-05-13 19:52:00,77.3,65.0,30.05,NE,51,2.5,2.5,66,0.00,,,0.00,TxWx,2013-05-13 23:52:00,
2013-05-13 19:53:00,77.3,65.0,30.05,North,6,3.7,4.3,66,0.00,,,0.00,TxWx,2013-05-13 23:53:00,
2013-05-13 19:57:00,77.2,65.0,30.05,NNE,28,5.0,5.0,67,0.00,,,0.00,TxWx,2013-05-13 23:57:00,
2013-05-13 19:58:00,77.2,65.0,30.05,NNE,28,7.4,7.4,67,0.00,,,0.00,TxWx,2013-05-13 23:58:00,
2013-05-13 19:59:00,77.3,65.0,30.05,NNW,343,3.7,3.7,67,0.00,,,0.00,TxWx,2013-05-13 23:59:00,
2013-05-13 20:02:00,77.2,65.0,30.05,North,6,6.2,6.2,67,0.00,,,0.00,TxWx,2013-05-14 00:02:00,
2013-05-13 20:03:00,77.1,65.0,30.05,ESE,118,2.5,3.1,67,0.00,,,0.00,TxWx,2013-05-14 00:03:00,
2013-05-13 20:04:00,77.1,65.0,30.05,WNW,298,1.9,1.9,68,0.00,,,0.00,TxWx,2013-05-14 00:04:00,
2013-05-13 20:05:00,77.0,65.0,30.05,NW,321,5.6,5.6,68,0.00,,,0.00,TxWx,2013-05-14 00:05:00,
2013-05-13 20:08:00,77.1,65.0,30.06,North,6,5.0,5.0,68,0.00,,,0.00,TxWx,2013-05-14 00:08:00,
2013-05-13 20:09:00,77.1,65.0,30.06,North,6,6.2,6.2,68,0.00,,,0.00,TxWx,2013-05-14 00:09:00,
2013-05-13 20:10:00,77.2,65.0,30.06,NNW,343,5.0,5.6,68,0.00,,,0.00,TxWx,2013-05-14 00:10:00,
2013-05-13 20:11:00,77.2,65.0,30.06,North,6,2.5,3.1,68,0.00,,,0.00,TxWx,2013-05-14 00:11:00,
2013-05-13 20:13:00,77.1,65.0,30.06,NNW,343,6.2,6.2,67,0.00,,,0.00,TxWx,2013-05-14 00:13:00,
2013-05-13 20:15:00,77.0,65.0,30.06,SSW,208,1.2,2.5,67,0.00,,,0.00,TxWx,2013-05-14 00:15:00,
2013-05-13 20:16:00,77.1,65.0,30.06,SSE,163,2.5,3.1,67,0.00,,,0.00,TxWx,2013-05-14 00:16:00,
2013-05-13 20:17:00,77.1,65.0,30.06,NW,321,4.3,5.6,68,0.00,,,0.00,TxWx,2013-05-14 00:17:00,
2013-05-13 20:21:00,77.0,66.0,30.05,NW,321,1.9,3.1,68,0.00,,,0.00,TxWx,2013-05-14 00:21:00,
2013-05-13 20:22:00,77.0,66.0,30.05,NE,51,4.3,4.3,68,0.00,,,0.00,TxWx,2013-05-14 00:22:00,
2013-05-13 20:25:00,77.0,66.0,30.06,NNW,343,3.7,4.3,68,0.00,,,0.00,TxWx,2013-05-14 00:25:00,
2013-05-13 20:27:00,77.0,65.0,30.06,North,6,8.7,9.3,68,0.00,,,0.00,TxWx,2013-05-14 00:27:00,
2013-05-13 20:29:00,77.0,65.0,30.06,North,6,7.4,7.4,68,0.00,,,0.00,TxWx,2013-05-14 00:29:00,
2013-05-13 20:33:00,77.0,65.0,30.06,NW,321,2.5,3.1,67,0.00,,,0.00,TxWx,2013-05-14 00:33:00,
2013-05-13 20:34:00,77.0,65.0,30.06,NNW,343,7.4,8.7,67,0.00,,,0.00,TxWx,2013-05-14 00:34:00,
2013-05-13 20:35:00,77.0,65.0,30.06,North,6,1.9,2.5,67,0.00,,,0.00,TxWx,2013-05-14 00:35:00,
2013-05-13 20:39:00,77.0,65.0,30.06,West,276,3.1,3.1,68,0.00,,,0.00,TxWx,2013-05-14 00:39:00,
2013-05-13 20:40:00,77.0,66.0,30.06,NE,51,3.1,3.1,68,0.00,,,0.00,TxWx,2013-05-14 00:40:00,
2013-05-13 20:41:00,77.1,66.0,30.06,North,6,3.7,3.7,69,0.00,,,0.00,TxWx,2013-05-14 00:41:00,
2013-05-13 20:44:00,77.1,66.0,30.06,NE,51,3.1,3.7,69,0.00,,,0.00,TxWx,2013-05-14 00:44:00,
2013-05-13 20:46:00,77.1,66.0,30.07,North,6,2.5,2.5,69,0.00,,,0.00,TxWx,2013-05-14 00:46:00,
2013-05-13 20:47:00,77.1,66.0,30.07,North,6,3.7,4.3,69,0.00,,,0.00,TxWx,2013-05-14 00:47:00,
2013-05-13 20:50:00,77.0,65.0,30.07,NNE,28,3.1,3.1,67,0.00,,,0.00,TxWx,2013-05-14 00:50:00,
2013-05-13 20:51:00,77.0,65.0,30.07,NW,321,2.5,3.1,67,0.00,,,0.00,TxWx,2013-05-14 00:51:00,
2013-05-13 20:53:00,77.0,65.0,30.07,NNE,28,5.6,5.6,67,0.00,,,0.00,TxWx,2013-05-14 00:53:00,
2013-05-13 20:55:00,77.1,65.0,30.07,NNW,343,1.9,2.5,67,0.00,,,0.00,TxWx,2013-05-14 00:55:00,
2013-05-13 20:57:00,77.0,65.0,30.07,NNW,343,4.3,4.3,66,0.00,,,0.00,TxWx,2013-05-14 00:57:00,
2013-05-13 21:00:00,77.0,65.0,30.07,North,6,3.7,3.7,66,0.00,,,0.00,TxWx,2013-05-14 01:00:00,
2013-05-13 21:02:00,76.9,64.0,30.07,NNE,28,4.3,4.3,65,0.00,,,0.00,TxWx,2013-05-14 01:02:00,
2013-05-13 21:04:00,76.9,64.0,30.07,North,6,6.8,6.8,65,0.00,,,0.00,TxWx,2013-05-14 01:04:00,
2013-05-13 21:07:00,77.1,65.0,30.07,NNW,343,3.7,3.7,66,0.00,,,0.00,TxWx,2013-05-14 01:07:00,
2013-05-13 21:08:00,77.1,65.0,30.07,North,6,5.6,5.6,66,0.00,,,0.00,TxWx,2013-05-14 01:08:00,
2013-05-13 21:09:00,77.0,65.0,30.07,ESE,118,2.5,3.7,66,0.00,,,0.00,TxWx,2013-05-14 01:09:00,
2013-05-13 21:10:00,77.0,64.0,30.07,NNE,28,5.0,5.0,65,0.00,,,0.00,TxWx,2013-05-14 01:10:00,
2013-05-13 21:11:00,77.0,64.0,30.07,SW,231,1.2,1.2,65,0.00,,,0.00,TxWx,2013-05-14 01:11:00,
2013-05-13 21:15:00,77.0,65.0,30.07,NNE,28,3.7,4.3,66,0.00,,,0.00,TxWx,2013-05-14 01:15:00,
2013-05-13 21:16:00,77.0,65.0,30.07,NNE,28,1.9,2.5,66,0.00,,,0.00,TxWx,2013-05-14 01:16:00,
2013-05-13 21:17:00,77.0,65.0,30.07,WNW,298,4.3,5.0,66,0.00,,,0.00,TxWx,2013-05-14 01:17:00,
2013-05-13 21:22:00,77.1,65.0,30.07,North,6,1.9,1.9,66,0.00,,,0.00,TxWx,2013-05-14 01:22:00,
2013-05-13 21:23:00,77.1,65.0,30.07,North,6,3.1,3.1,66,0.00,,,0.00,TxWx,2013-05-14 01:23:00,
2013-05-13 21:25:00,77.1,65.0,30.07,North,6,5.6,5.6,66,0.00,,,0.00,TxWx,2013-05-14 01:25:00,
2013-05-13 21:26:00,77.1,65.0,30.08,East,96,3.1,3.1,66,0.00,,,0.00,TxWx,2013-05-14 01:26:00,
2013-05-13 21:28:00,77.2,65.0,30.08,North,6,3.7,3.7,66,0.00,,,0.00,TxWx,2013-05-14 01:28:00,
2013-05-13 21:29:00,77.2,65.0,30.08,WSW,253,1.2,1.2,66,0.00,,,0.00,TxWx,2013-05-14 01:29:00,
2013-05-13 21:30:00,77.3,65.0,30.08,NNE,28,5.6,5.6,66,0.00,,,0.00,TxWx,2013-05-14 01:30:00,
2013-05-13 21:32:00,77.3,65.0,30.08,SE,141,2.5,3.1,66,0.00,,,0.00,TxWx,2013-05-14 01:32:00,
2013-05-13 21:33:00,77.3,65.0,30.08,WNW,298,2.5,3.1,66,0.00,,,0.00,TxWx,2013-05-14 01:33:00,
2013-05-13 21:34:00,77.3,65.0,30.08,WSW,253,1.9,1.9,67,0.00,,,0.00,TxWx,2013-05-14 01:34:00,
2013-05-13 21:36:00,77.4,65.0,30.08,NW,321,2.5,2.5,68,0.00,,,0.00,TxWx,2013-05-14 01:36:00,
2013-05-13 21:37:00,77.2,65.0,30.07,NE,51,5.0,5.0,67,0.00,,,0.00,TxWx,2013-05-14 01:37:00,
2013-05-13 21:38:00,77.2,65.0,30.08,NNW,343,3.1,3.7,67,0.00,,,0.00,TxWx,2013-05-14 01:38:00,
2013-05-13 21:40:00,77.2,65.0,30.07,NNE,28,7.4,7.4,66,0.00,,,0.00,TxWx,2013-05-14 01:40:00,
2013-05-13 21:42:00,77.3,65.0,30.08,NNW,343,3.7,3.7,66,0.00,,,0.00,TxWx,2013-05-14 01:42:00,
2013-05-13 21:43:00,77.3,65.0,30.08,NE,51,3.1,3.1,66,0.00,,,0.00,TxWx,2013-05-14 01:43:00,
2013-05-13 21:45:00,77.4,65.0,30.08,NNW,343,3.7,3.7,67,0.00,,,0.00,TxWx,2013-05-14 01:45:00,
2013-05-13 21:47:00,77.4,65.0,30.08,NW,321,5.0,5.0,66,0.00,,,0.00,TxWx,2013-05-14 01:47:00,
2013-05-13 21:49:00,77.4,65.0,30.08,North,6,3.7,5.0,66,0.00,,,0.00,TxWx,2013-05-14 01:49:00,
2013-05-13 21:50:00,77.4,65.0,30.08,NNE,28,3.1,3.1,66,0.00,,,0.00,TxWx,2013-05-14 01:50:00,
2013-05-13 21:52:00,77.4,65.0,30.07,NNW,343,1.2,1.2,66,0.00,,,0.00,TxWx,2013-05-14 01:52:00,
2013-05-13 21:53:00,77.3,64.0,30.08,ENE,73,2.5,3.1,65,0.00,,,0.00,TxWx,2013-05-14 01:53:00,
2013-05-13 21:54:00,77.4,64.0,30.08,NE,51,3.1,3.7,65,0.00,,,0.00,TxWx,2013-05-14 01:54:00,
2013-05-13 21:55:00,77.4,65.0,30.08,NNW,343,3.7,4.3,66,0.00,,,0.00,TxWx,2013-05-14 01:55:00,
2013-05-13 21:56:00,77.4,65.0,30.08,NW,321,8.0,8.0,66,0.00,,,0.00,TxWx,2013-05-14 01:56:00,
2013-05-13 21:58:00,77.5,65.0,30.08,ESE,118,3.7,3.7,66,0.00,,,0.00,TxWx,2013-05-14 01:58:00,
2013-05-13 22:00:00,77.5,66.0,30.08,East,96,1.9,2.5,67,0.00,,,0.00,TxWx,2013-05-14 02:00:00,
2013-05-13 22:02:00,77.5,65.0,30.08,North,6,1.2,1.9,66,0.00,,,0.00,TxWx,2013-05-14 02:02:00,
2013-05-13 22:03:00,77.4,65.0,30.08,NW,321,3.1,3.1,66,0.00,,,0.00,TxWx,2013-05-14 02:03:00,
2013-05-13 22:05:00,77.4,65.0,30.08,NNE,28,5.6,5.6,66,0.00,,,0.00,TxWx,2013-05-14 02:05:00,
2013-05-13 22:08:00,77.5,64.0,30.08,NNW,343,2.5,2.5,65,0.00,,,0.00,TxWx,2013-05-14 02:08:00,
2013-05-13 22:09:00,77.5,65.0,30.08,NNE,28,3.1,3.1,65,0.00,,,0.00,TxWx,2013-05-14 02:09:00,
2013-05-13 22:10:00,77.5,65.0,30.08,North,6,6.8,6.8,66,0.00,,,0.00,TxWx,2013-05-14 02:10:00,
2013-05-13 22:11:00,77.5,65.0,30.08,NE,51,4.3,5.0,65,0.00,,,0.00,TxWx,2013-05-14 02:11:00,
2013-05-13 22:13:00,77.6,65.0,30.08,NNW,343,1.9,2.5,66,0.00,,,0.00,TxWx,2013-05-14 02:13:00,
2013-05-13 22:14:00,77.5,65.0,30.08,ENE,73,3.7,4.3,65,0.00,,,0.00,TxWx,2013-05-14 02:14:00,
2013-05-13 22:15:00,77.5,65.0,30.08,ENE,73,3.1,3.1,65,0.00,,,0.00,TxWx,2013-05-14 02:15:00,
2013-05-13 22:16:00,77.5,65.0,30.08,NE,51,3.1,3.1,65,0.00,,,0.00,TxWx,2013-05-14 02:16:00,
2013-05-13 22:17:00,77.5,65.0,30.08,NE,51,1.2,1.2,65,0.00,,,0.00,TxWx,2013-05-14 02:17:00,
2013-05-13 22:20:00,77.6,66.0,30.08,NW,321,3.1,3.1,66,0.00,,,0.00,TxWx,2013-05-14 02:20:00,
2013-05-13 22:21:00,77.6,65.0,30.08,WNW,298,1.9,2.5,66,0.00,,,0.00,TxWx,2013-05-14 02:21:00,
2013-05-13 22:23:00,77.5,65.0,30.09,North,6,2.5,3.1,65,0.00,,,0.00,TxWx,2013-05-14 02:23:00,
2013-05-13 22:24:00,77.5,65.0,30.08,NNW,343,3.1,3.1,65,0.00,,,0.00,TxWx,2013-05-14 02:24:00,
2013-05-13 22:26:00,77.6,65.0,30.09,WNW,298,1.2,1.9,64,0.00,,,0.00,TxWx,2013-05-14 02:26:00,
2013-05-13 22:27:00,77.6,65.0,30.09,WNW,298,3.7,3.7,65,0.00,,,0.00,TxWx,2013-05-14 02:27:00,
2013-05-13 22:29:00,77.6,65.0,30.09,South,186,2.5,2.5,64,0.00,,,0.00,TxWx,2013-05-14 02:29:00,
2013-05-13 22:30:00,77.6,65.0,30.09,North,6,3.7,3.7,64,0.00,,,0.00,TxWx,2013-05-14 02:30:00,
2013-05-13 22:31:00,77.6,65.0,30.08,North,6,3.7,3.7,64,0.00,,,0.00,TxWx,2013-05-14 02:31:00,
2013-05-13 22:33:00,77.6,65.0,30.08,ENE,73,3.1,3.1,64,0.00,,,0.00,TxWx,2013-05-14 02:33:00,
2013-05-13 22:36:00,77.7,65.0,30.09,NW,321,3.1,3.1,65,0.00,,,0.00,TxWx,2013-05-14 02:36:00,
2013-05-13 22:38:00,77.6,65.0,30.09,NNE,28,1.9,2.5,64,0.00,,,0.00,TxWx,2013-05-14 02:38:00,
2013-05-13 22:40:00,77.5,65.0,30.09,NNE,28,3.7,4.3,64,0.00,,,0.00,TxWx,2013-05-14 02:40:00,
2013-05-13 22:42:00,77.6,65.0,30.09,NW,321,3.1,3.1,65,0.00,,,0.00,TxWx,2013-05-14 02:42:00,
2013-05-13 22:44:00,77.6,65.0,30.09,NNW,343,1.9,2.5,64,0.00,,,0.00,TxWx,2013-05-14 02:44:00,
2013-05-13 22:45:00,77.7,65.0,30.09,East,96,2.5,3.1,64,0.00,,,0.00,TxWx,2013-05-14 02:45:00,
2013-05-13 22:49:00,77.7,64.0,30.09,NNW,343,3.1,3.1,63,0.00,,,0.00,TxWx,2013-05-14 02:49:00,
2013-05-13 22:50:00,77.6,65.0,30.09,WSW,253,3.1,3.1,64,0.00,,,0.00,TxWx,2013-05-14 02:50:00,
2013-05-13 22:51:00,77.6,65.0,30.09,West,276,1.2,1.9,64,0.00,,,0.00,TxWx,2013-05-14 02:51:00,
2013-05-13 22:52:00,77.7,65.0,30.09,NW,321,1.9,1.9,64,0.00,,,0.00,TxWx,2013-05-14 02:52:00,
2013-05-13 22:53:00,77.7,65.0,30.09,North,6,3.7,3.7,64,0.00,,,0.00,TxWx,2013-05-14 02:53:00,
2013-05-13 22:56:00,77.6,65.0,30.09,North,6,3.1,3.1,64,0.00,,,0.00,TxWx,2013-05-14 02:56:00,
2013-05-13 22:58:00,77.6,65.0,30.09,North,6,5.0,6.2,64,0.00,,,0.00,TxWx,2013-05-14 02:58:00,
2013-05-13 22:59:00,77.6,65.0,30.09,North,6,5.0,6.8,64,0.00,,,0.00,TxWx,2013-05-14 02:59:00,
2013-05-13 23:00:00,77.6,65.0,30.09,WSW,253,3.1,3.1,64,0.00,,,0.00,TxWx,2013-05-14 03:00:00,
2013-05-13 23:02:00,77.7,65.0,30.09,NNW,343,5.0,5.0,64,0.00,,,0.00,TxWx,2013-05-14 03:02:00,
2013-05-13 23:04:00,77.6,64.0,30.09,NW,321,5.6,5.6,63,0.00,,,0.00,TxWx,2013-05-14 03:04:00,
2013-05-13 23:05:00,77.7,64.0,30.09,North,6,4.3,4.3,63,0.00,,,0.00,TxWx,2013-05-14 03:05:00,
2013-05-13 23:06:00,77.7,65.0,30.09,East,96,5.0,5.6,64,0.00,,,0.00,TxWx,2013-05-14 03:06:00,
2013-05-13 23:07:00,77.8,65.0,30.09,NW,321,1.9,1.9,64,0.00,,,0.00,TxWx,2013-05-14 03:07:00,
2013-05-13 23:10:00,77.7,65.0,30.09,NE,51,4.3,4.3,64,0.00,,,0.00,TxWx,2013-05-14 03:10:00,
2013-05-13 23:11:00,77.6,65.0,30.09,NNE,28,2.5,2.5,64,0.00,,,0.00,TxWx,2013-05-14 03:11:00,
2013-05-13 23:12:00,77.7,65.0,30.09,NW,321,4.3,5.6,64,0.00,,,0.00,TxWx,2013-05-14 03:12:00,
2013-05-13 23:13:00,77.6,64.0,30.09,NE,51,6.2,6.8,63,0.00,,,0.00,TxWx,2013-05-14 03:13:00,
2013-05-13 23:16:00,77.7,65.0,30.09,WSW,253,1.9,2.5,64,0.00,,,0.00,TxWx,2013-05-14 03:16:00,
2013-05-13 23:17:00,77.7,65.0,30.09,NNE,28,4.3,4.3,64,0.00,,,0.00,TxWx,2013-05-14 03:17:00,
2013-05-13 23:19:00,77.7,65.0,30.09,ENE,73,5.6,5.6,64,0.00,,,0.00,TxWx,2013-05-14 03:19:00,
2013-05-13 23:22:00,77.7,65.0,30.09,NNW,343,3.7,3.7,64,0.00,,,0.00,TxWx,2013-05-14 03:22:00,
2013-05-13 23:25:00,77.7,64.0,30.09,NNW,343,4.3,4.3,63,0.00,,,0.00,TxWx,2013-05-14 03:25:00,
2013-05-13 23:26:00,77.7,64.0,30.09,NE,51,6.2,6.2,63,0.00,,,0.00,TxWx,2013-05-14 03:26:00,
2013-05-13 23:27:00,77.7,64.0,30.09,North,6,5.6,6.2,63,0.00,,,0.00,TxWx,2013-05-14 03:27:00,
2013-05-13 23:28:00,77.7,64.0,30.09,North,6,3.1,3.1,63,0.00,,,0.00,TxWx,2013-05-14 03:28:00,
2013-05-13 23:30:00,77.7,65.0,30.09,NE,51,4.3,4.3,64,0.00,,,0.00,TxWx,2013-05-14 03:30:00,
2013-05-13 23:31:00,77.8,65.0,30.09,East,96,6.2,6.8,65,0.00,,,0.00,TxWx,2013-05-14 03:31:00,
2013-05-13 23:33:00,77.7,65.0,30.09,NE,51,5.0,5.0,64,0.00,,,0.00,TxWx,2013-05-14 03:33:00,
2013-05-13 23:34:00,77.7,65.0,30.09,NNE,28,6.8,8.0,65,0.00,,,0.00,TxWx,2013-05-14 03:34:00,
2013-05-13 23:36:00,77.7,65.0,30.09,NNW,343,5.0,5.0,66,0.00,,,0.00,TxWx,2013-05-14 03:36:00,
2013-05-13 23:37:00,77.7,65.0,30.09,NNW,343,3.7,5.0,66,0.00,,,0.00,TxWx,2013-05-14 03:37:00,
2013-05-13 23:39:00,77.7,65.0,30.09,NE,51,5.0,5.0,65,0.00,,,0.00,TxWx,2013-05-14 03:39:00,
2013-05-13 23:43:00,77.7,65.0,30.09,NNE,28,5.6,6.8,65,0.00,,,0.00,TxWx,2013-05-14 03:43:00,
2013-05-13 23:45:00,77.7,65.0,30.09,ENE,73,3.1,3.1,66,0.00,,,0.00,TxWx,2013-05-14 03:45:00,
2013-05-13 23:46:00,77.6,66.0,30.10,NNE,28,8.0,8.0,67,0.00,,,0.00,TxWx,2013-05-14 03:46:00,
2013-05-13 23:48:00,77.6,65.0,30.09,North,6,6.2,6.2,65,0.00,,,0.00,TxWx,2013-05-14 03:48:00,
2013-05-13 23:49:00,77.6,65.0,30.09,NNE,28,7.4,7.4,65,0.00,,,0.00,TxWx,2013-05-14 03:49:00,
2013-05-13 23:51:00,77.5,65.0,30.09,NNW,343,2.5,3.1,64,0.00,,,0.00,TxWx,2013-05-14 03:51:00,
2013-05-13 23:52:00,77.6,65.0,30.10,East,96,4.3,5.0,64,0.00,,,0.00,TxWx,2013-05-14 03:52:00,
2013-05-13 23:53:00,77.6,65.0,30.09,NE,51,3.7,3.7,65,0.00,,,0.00,TxWx,2013-05-14 03:53:00,
2013-05-13 23:55:00,77.6,65.0,30.09,North,6,6.8,6.8,64,0.00,,,0.00,TxWx,2013-05-14 03:55:00,
2013-05-13 23:58:00,77.6,65.0,30.09,NW,321,2.5,3.1,64,0.00,,,0.00,TxWx,2013-05-14 03:58:00,